BEIDOU-3 M23 (C45)

Last updated on Jan. 24, 2021, 6:19 a.m. UTC

1 44542U 19061A   21023.42157815  .00000075  00000-0  10000-3 0  9993
2 44542  54.7668 249.4665 0008756 341.5203 237.9192  1.86231727  9084
UTC
Height (km)
Latitude
Longitude
Inclination
Orbital Period
UTC large
Height (km)
Speed (km/s)
/
Latitude / Longitude
Inclination (degrees)
Orbital Period (minutes)
Azimuth
Elevation
Range (km)
Doppler Factor
iOS Compass Heading
iOS Angle

Next 30 passes for location: Hong Kong

Rise time Rise Azimuth (degrees) Set time Set Azimuth (degrees) Duration Max altitude (degrees)

No matching passes for this satellites